Weather History for KBAD - January, 2013

Change the Weather History Date:

Tuesday, January 29, 2013

  Actual Average Record
Temperature  
Mean Temperature 64 °F -  
Max Temperature 75 °F 54 °F 78 °F (2002)
Min Temperature 54 °F 36 °F 17 °F (2014)
Growing Degree Days 14 (Base 50)    
Moisture  
Dew Point 63 °F    
Average Humidity 84    
Maximum Humidity 100    
Minimum Humidity 64    
Precipitation  
Precipitation 0.26 in - - ()
Sea Level Pressure  
Sea Level Pressure 29.75 in    
Wind  
Wind Speed 16 mph (South)    
Max Wind Speed 36 mph    
Max Gust Speed 44 mph    
Visibility 9 miles    
Events Rain , Thunderstorm    
Averages and records for this station are not official NWS values.
T = Trace of Precipitation, MM = Missing Value Source: NWS Daily Summary

Daily Weather History Graph

Daily Weather History Graph

Search for Another Location

Airport or City:

Trip Planner

Search our weather history database for the weather conditions in past years. The results will help you decide how hot, cold, wet, or windy it might be!

Date:

Astronomy

Jan. 29, 2013 Rise Set
Actual Time 7:10 AM CST 5:45 PM CST
Civil Twilight 6:44 AM CST 6:11 PM CST
Nautical Twilight 6:15 AM CST 6:40 PM CST
Astronomical Twilight 5:46 AM CST 7:09 PM CST
Moon 8:28 PM CST 8:19 AM CST
Length of Visible Light 11h 26m
Length of Day
10h 34m
Waning Gibbous, 93% of the Moon is Illuminated
Jan 29
Waning Gibbous
Feb 3
Last Quarter
Feb 10
New
Feb 17
First Quarter
Feb 25
Full

Hourly Weather History & Observations

Time (CST) Temp. Dew Point Humidity Pressure Visibility Wind Dir Wind Speed Gust Speed Precip Events Conditions
12:58 AM 67.5 °F 62.4 °F 84% 29.96 in 10.0 mi SSE 13.8 mph - N/A   Overcast
1:18 AM 68.0 °F 62.6 °F 83% 29.94 in 10.0 mi SSE 15.0 mph - N/A   Overcast
1:58 AM 67.3 °F 62.4 °F 84% 29.94 in 10.0 mi SSE 17.3 mph - N/A   Overcast
2:58 AM 68.2 °F 61.9 °F 80% 29.93 in 10.0 mi South 16.1 mph 26.5 mph N/A   Overcast
3:58 AM 66.7 °F 62.6 °F 86% 29.93 in 10.0 mi SSE 10.4 mph - N/A   Overcast
4:58 AM 65.1 °F 64.8 °F 99% 29.91 in 9.0 mi SSE 10.4 mph - N/A   Overcast
5:13 AM 64.4 °F 64.4 °F 100% 29.90 in 7.0 mi SSE 8.1 mph - N/A   Light Drizzle
5:20 AM 64.4 °F 64.4 °F 100% 29.90 in 9.0 mi SSE 8.1 mph - N/A   Light Drizzle
5:30 AM 64.4 °F 64.4 °F 100% 29.91 in 9.0 mi SSE 9.2 mph - N/A   Mostly Cloudy
5:48 AM 64.4 °F 64.4 °F 100% 29.91 in 9.0 mi SSE 9.2 mph - N/A Rain Light Rain
5:58 AM 64.4 °F 64.4 °F 100% 29.91 in 9.0 mi SSE 9.2 mph - 0.00 in Rain Light Rain
6:29 AM 66.2 °F 66.2 °F 100% 29.89 in 10.0 mi SE 12.7 mph - N/A   Mostly Cloudy
6:35 AM 66.2 °F 64.4 °F 94% 29.89 in 10.0 mi SE 13.8 mph - N/A   Mostly Cloudy
6:58 AM 66.0 °F 64.6 °F 95% 29.87 in 10.0 mi SE 16.1 mph - 0.00 in   Mostly Cloudy
7:58 AM 66.4 °F 64.6 °F 94% 29.88 in 10.0 mi SSE 13.8 mph - N/A   Mostly Cloudy
8:13 AM 66.2 °F 64.4 °F 94% 29.87 in 10.0 mi SSE 12.7 mph - N/A   Mostly Cloudy
8:58 AM 67.1 °F 64.8 °F 92% 29.88 in 10.0 mi SSE 13.8 mph - N/A   Overcast
9:58 AM 69.8 °F 64.4 °F 83% 29.85 in 10.0 mi SSE 16.1 mph 21.9 mph N/A   Overcast
10:58 AM 70.2 °F 65.1 °F 84% 29.82 in 10.0 mi South 19.6 mph - N/A   Overcast
11:07 AM 69.8 °F 64.4 °F 83% 29.81 in 10.0 mi South 20.7 mph 24.2 mph N/A Rain Light Rain Showers
11:22 AM 69.8 °F 64.4 °F 83% 29.80 in 10.0 mi South 20.7 mph 28.8 mph N/A   Overcast
11:39 AM 69.8 °F 64.4 °F 83% 29.78 in 10.0 mi South 24.2 mph 31.1 mph N/A Rain Light Rain Showers
11:50 AM 69.8 °F 66.2 °F 88% 29.77 in 10.0 mi South 23.0 mph 29.9 mph N/A   Overcast
11:58 AM 70.3 °F 65.3 °F 84% 29.77 in 10.0 mi SSE 20.7 mph 26.5 mph 0.00 in   Overcast
12:58 PM 73.6 °F 64.4 °F 73% 29.70 in 10.0 mi South 24.2 mph 35.7 mph N/A   Overcast
1:58 PM 73.6 °F 64.6 °F 73% 29.68 in 10.0 mi South 24.2 mph 31.1 mph N/A   Overcast
2:58 PM 74.5 °F 64.6 °F 71% 29.65 in 10.0 mi South 25.3 mph 33.4 mph N/A   Overcast
3:12 PM 75.2 °F 64.4 °F 69% 29.63 in 10.0 mi South 21.9 mph 31.1 mph N/A Rain Light Rain Showers
3:35 PM 73.4 °F 64.4 °F 73% 29.61 in 10.0 mi South 26.5 mph 34.5 mph N/A   Mostly Cloudy
3:58 PM 75.2 °F 64.9 °F 70% 29.61 in 10.0 mi South 25.3 mph 31.1 mph 0.00 in   Overcast
4:08 PM 75.2 °F 64.4 °F 69% 29.60 in 10.0 mi South 23.0 mph 38.0 mph N/A   Overcast
4:58 PM 75.0 °F 65.1 °F 71% 29.59 in 10.0 mi South 24.2 mph 31.1 mph N/A   Overcast
5:08 PM 75.2 °F 64.4 °F 69% 29.58 in 10.0 mi South 20.7 mph 34.5 mph N/A   Overcast
5:58 PM 74.5 °F 65.8 °F 74% 29.59 in 10.0 mi South 19.6 mph 34.5 mph N/A   Overcast
6:13 PM 73.4 °F 66.2 °F 78% 29.58 in 10.0 mi South 23.0 mph 31.1 mph N/A   Overcast
6:18 PM 73.4 °F 66.2 °F 78% 29.58 in 10.0 mi South 20.7 mph - N/A   Overcast
6:48 PM 73.4 °F 66.2 °F 78% 29.55 in 10.0 mi South 26.5 mph 32.2 mph N/A   Overcast
6:58 PM 73.6 °F 66.0 °F 77% 29.56 in 5.0 mi South 24.2 mph 33.4 mph N/A Rain Light Rain Showers
7:58 PM 73.6 °F 66.0 °F 77% 29.57 in 10.0 mi South 18.4 mph 27.6 mph N/A   Overcast
8:27 PM 73.4 °F 66.2 °F 78% 29.55 in 10.0 mi SSW 20.7 mph 29.9 mph N/A   Overcast
8:58 PM 73.4 °F 64.4 °F 73% 29.59 in 10.0 mi West 35.7 mph 43.7 mph N/A   Mostly Cloudy
9:10 PM 64.4 °F 51.8 °F 64% 29.64 in 5.0 mi WNW 24.2 mph 43.7 mph N/A Rain Light Rain Showers
9:23 PM 59.0 °F 51.8 °F 77% 29.65 in 5.0 mi NW 28.8 mph 35.7 mph N/A Rain Light Rain
9:32 PM 57.2 °F 53.6 °F 88% 29.67 in 5.0 mi NW 26.5 mph 33.4 mph N/A Rain , Thunderstorm Heavy Thunderstorms and Rain
9:58 PM 56.5 °F 53.4 °F 89% 29.71 in 8.0 mi WNW 18.4 mph 24.2 mph 0.08 in Rain , Thunderstorm Light Rain
10:07 PM 55.4 °F 53.6 °F 94% 29.69 in 5.0 mi NW 18.4 mph 29.9 mph N/A Rain Rain
10:58 PM 54.9 °F 52.5 °F 92% 29.69 in 8.0 mi NNW 8.1 mph - 0.16 in Rain Light Rain
11:46 PM 55.4 °F 51.8 °F 88% 29.69 in 10.0 mi WSW 3.5 mph - N/A Rain Light Rain
11:58 PM 55.0 °F 52.7 °F 92% 29.71 in 8.0 mi West 6.9 mph - 0.02 in Rain Light Rain